Other Public Products
Issued by NWS Charleston, SC

Home | Current Version | Previous Version | Text Only | Print | Product List | Glossary On
Versions: 1 2 3 4 5 6 7 8 9 10 11 12 13 14 15 16 17 18 19 20 21 22 23 24 25 26 27 28 29 30 31 32 33 34 35 36 37 38 39 40 41 42 43 44 45 46 47 48 49 50
000
FPUS82 KCHS 291727
OPUCHS

TEST...KCHS/KSAV Gateway Observations...TEST
National Weather Service Charleston SC
100 PM EDT WED MAR 29 2017

NOTE: "fair" indicates few or no clouds below 12,000 feet with no
significant weather and/or obstructions to visibility.

SCZ050-WAZ558-NCZ071-TXZ119-213-PAZ071-DCZ001-FLZ074-172-MI076-
NYZ176-178-MAZ016-IL014-TNZ027-NJZ106-GAZ044-MD014-291800-

...Gateway Observations for Charleston International...

CITY           SKY/WX    TMP DP  RH WIND       PRES   REMARKS
Chas Airport   MOSUNNY   81  52  36 NE7       30.02F
Seattle        CLOUDY    48  48 100 SE9       29.82S
Charlotte      MOSUNNY   73  50  44 E6        30.08F
Dallas DFW     MOSUNNY   75  53  46 SW21G26   29.72R
Dallas Love    MOSUNNY   73  56  54 SW10      29.74R
Philladelphia  MOSUNNY   58  34  40 N13       30.10F
Wash National  MOSUNNY   62  39  42 NW10      30.13F
Baltimore      MOSUNNY   60  36  40 NW9       30.12S
Miami          MOSUNNY   84  61  46 CALM      30.05F
Detroit        PTSUNNY   53  31  42 NE9       30.28F
Newark         MOSUNNY   56  33  42 NW13G20   30.06F
Laguardia      MOSUNNY   55  34  45 NW12      30.05F
J F K          MOSUNNY   55  36  48 N20       30.06F
Boston Logan   CLOUDY    45  37  73 N7        30.02F
Ft. Lauderdale MOSUNNY   83  60  45 SE10      30.05F
Chicago O`Hare CLOUDY    47  36  65 NE12      30.24S
Chicago Midway CLOUDY    47  37  68 NE14G21   30.24F
Houston Bush   TSTM      71  67  87 SE14      29.80F
Houston Hobby  LGT RAIN  70  68  93 S7        29.82F
Nashville      PTSUNNY   71  52  50 CALM      30.08R
Atlanta        MOSUNNY   76  55  48 E6        30.06F

$$

GAZ044-118-TXZ119-213-NCZ071-DCZ001-MDZ014-506-PAZ021-071-NJZ106-
NYZ176-178-MAZ106-OHZ011-021-055-MIZ076-KYZ091-ILZ014-INZ047-
MNZ060-ONZ431-291800-

...Gateway Observations for Savannah International...

CITY           SKY/WX    TMP DP  RH WIND       PRES   REMARKS
Savannah Arpt  PTSUNNY   83  56  39 E7        30.03F
Atlanta        MOSUNNY   76  55  48 E6        30.06F
Charlotte      MOSUNNY   73  50  44 E6        30.08F
Dallas DFW     MOSUNNY   75  53  46 SW21G26   29.72R
Houston Bush   TSTM      71  67  87 SE14      29.80F
Wash National  MOSUNNY   62  39  42 NW10      30.13F
Wash Dulles    MOSUNNY   59  39  47 N10       30.14S
Baltimore      MOSUNNY   60  36  40 NW9       30.12S
Philadelphia   MOSUNNY   58  34  40 N13       30.10F
Newark         MOSUNNY   56  33  42 NW13G20   30.06F
Laguardia      MOSUNNY   55  34  45 NW12      30.05F
J F K          MOSUNNY   55  36  48 N20       30.06F
Boston         CLOUDY    45  37  73 N7        30.02F
Pittsburg      MOSUNNY   52  37  56 N5        30.20F
Akron          MOSUNNY   52  35  52 NE14      30.22F
Cleveland      MOSUNNY   53  37  54 NE12      30.27F
Cincinnati     MOSUNNY   52  41  66 NE10      30.18R
Columbus       MOSUNNY   54  41  60 E9        30.18F
Detroit        PTSUNNY   53  31  42 NE9       30.28F
Chicago O`Hare CLOUDY    47  36  65 NE12      30.24S
Minneapolis    CLOUDY    50  33  52 SE9       30.24F
Indianapolis   MOSUNNY   54  41  61 E16       30.17F
Toronto Canada PTSUNNY   46  28  49 NE6       30.26F

$$




USA.gov is the U.S. government's official web portal to all federal, state and local government web resources and services.